TimeCST,TemperatureF,Dew PointF,Humidity,Sea Level PressureIn,VisibilityMPH,Wind Direction,Wind SpeedMPH,Gust SpeedMPH,PrecipitationIn,Events,Conditions,WindDirDegrees,DateUTC
12:15 AM,18.9,18.3,98,29.78,0.5,North,3.5,-,N/A,Fog,Light Freezing Fog,360,2012-12-17 06:15:00
12:55 AM,18.7,18.1,98,29.77,0.5,Calm,Calm,-,N/A,Fog,Light Freezing Fog,0,2012-12-17 06:55:00
1:15 AM,18.9,18.3,98,29.76,0.5,Calm,Calm,-,N/A,Fog,Light Freezing Fog,0,2012-12-17 07:15:00
1:34 AM,18.9,18.3,98,29.76,0.8,Calm,Calm,-,N/A,,Overcast,0,2012-12-17 07:34:00
1:55 AM,19.2,18.5,97,29.76,0.5,Calm,Calm,-,N/A,Fog,Light Freezing Fog,0,2012-12-17 07:55:00
2:15 AM,19.2,18.5,97,29.76,0.5,Calm,Calm,-,N/A,Fog,Light Freezing Fog,0,2012-12-17 08:15:00
2:35 AM,19.2,18.5,97,29.76,0.5,Calm,Calm,-,N/A,Fog,Light Freezing Fog,0,2012-12-17 08:35:00
2:55 AM,19.2,18.5,97,29.76,0.5,Calm,Calm,-,N/A,Fog,Light Freezing Fog,0,2012-12-17 08:55:00
3:15 AM,19.4,18.9,98,29.75,0.8,Calm,Calm,-,N/A,,Overcast,0,2012-12-17 09:15:00
3:35 AM,19.4,18.9,98,29.75,1.0,Calm,Calm,-,N/A,,Overcast,0,2012-12-17 09:35:00
3:55 AM,19.4,18.9,98,29.74,1.0,Calm,Calm,-,N/A,,Overcast,0,2012-12-17 09:55:00
4:15 AM,19.4,19.0,98,29.74,1.8,Calm,Calm,-,N/A,,Overcast,0,2012-12-17 10:15:00
4:35 AM,19.4,19.2,99,29.73,0.5,Calm,Calm,-,N/A,Fog,Light Freezing Fog,0,2012-12-17 10:35:00
4:54 AM,19.8,19.4,99,29.73,0.5,Calm,Calm,-,N/A,Fog,Light Freezing Fog,0,2012-12-17 10:54:00
5:15 AM,19.9,19.4,98,29.73,0.8,Calm,Calm,-,N/A,,Overcast,0,2012-12-17 11:15:00
5:35 AM,19.9,19.4,98,29.73,2.5,Calm,Calm,-,N/A,,Overcast,0,2012-12-17 11:35:00
5:54 AM,20.1,19.8,99,29.73,4.0,Calm,Calm,-,N/A,,Overcast,0,2012-12-17 11:54:00
6:15 AM,20.1,19.8,99,29.73,2.5,Calm,Calm,-,N/A,Snow,Light Snow,0,2012-12-17 12:15:00
6:35 AM,20.1,19.6,98,29.73,4.0,ENE,3.5,-,N/A,,Overcast,60,2012-12-17 12:35:00
6:55 AM,19.9,19.4,98,29.73,7.0,Calm,Calm,-,N/A,,Overcast,0,2012-12-17 12:55:00
7:15 AM,20.1,19.6,98,29.73,5.0,East,3.5,-,N/A,,Overcast,100,2012-12-17 13:15:00
7:35 AM,19.9,19.4,98,29.72,7.0,Calm,Calm,-,N/A,,Overcast,0,2012-12-17 13:35:00
7:55 AM,19.9,19.4,98,29.72,7.0,Calm,Calm,-,N/A,,Overcast,0,2012-12-17 13:55:00
8:15 AM,19.9,19.4,98,29.72,7.0,ENE,3.5,-,N/A,,Overcast,60,2012-12-17 14:15:00
8:35 AM,20.1,19.8,99,29.72,7.0,Calm,Calm,-,N/A,,Overcast,0,2012-12-17 14:35:00
8:55 AM,20.3,19.9,99,29.72,7.0,East,3.5,-,N/A,,Overcast,100,2012-12-17 14:55:00
9:15 AM,20.3,20.1,99,29.72,4.0,Calm,Calm,-,N/A,,Overcast,0,2012-12-17 15:15:00
9:35 AM,20.8,20.3,98,29.73,7.0,Calm,Calm,-,N/A,,Overcast,0,2012-12-17 15:35:00
9:55 AM,21.2,20.8,99,29.73,7.0,Calm,Calm,-,N/A,,Overcast,0,2012-12-17 15:55:00
10:15 AM,21.2,21.0,99,29.73,5.0,Calm,Calm,-,N/A,,Overcast,0,2012-12-17 16:15:00
10:35 AM,21.7,21.4,99,29.72,2.5,Calm,Calm,-,N/A,Snow,Light Snow,0,2012-12-17 16:35:00
10:55 AM,22.1,21.9,99,29.71,5.0,Calm,Calm,-,N/A,,Overcast,0,2012-12-17 16:55:00
11:15 AM,22.5,22.1,99,29.71,5.0,Calm,Calm,-,N/A,Snow,Light Snow,0,2012-12-17 17:15:00
11:35 AM,22.6,22.5,99,29.70,7.0,Calm,Calm,-,N/A,,Overcast,0,2012-12-17 17:35:00
11:55 AM,23.0,22.8,99,29.69,1.8,Calm,Calm,-,N/A,Snow,Light Snow,0,2012-12-17 17:55:00
12:15 PM,23.4,23.4,100,29.68,2.5,Calm,Calm,-,N/A,,Overcast,0,2012-12-17 18:15:00
12:35 PM,23.0,23.0,100,29.67,5.0,Calm,Calm,-,N/A,,Overcast,0,2012-12-17 18:35:00
12:54 PM,23.5,23.5,100,29.67,7.0,Calm,Calm,-,N/A,,Overcast,0,2012-12-17 18:54:00
1:15 PM,23.4,23.4,100,29.66,7.0,Calm,Calm,-,N/A,,Overcast,0,2012-12-17 19:15:00
1:35 PM,23.7,23.7,100,29.65,5.0,Calm,Calm,-,N/A,,Overcast,0,2012-12-17 19:35:00
1:55 PM,23.9,23.9,100,29.65,5.0,Calm,Calm,-,N/A,,Overcast,0,2012-12-17 19:55:00
2:15 PM,23.9,23.9,100,29.64,5.0,Calm,Calm,-,N/A,,Overcast,0,2012-12-17 20:15:00
2:35 PM,24.4,24.4,100,29.64,5.0,Calm,Calm,-,N/A,,Overcast,0,2012-12-17 20:35:00
2:55 PM,24.3,24.3,100,29.64,7.0,Calm,Calm,-,N/A,,Overcast,0,2012-12-17 20:55:00
3:15 PM,24.1,24.1,100,29.64,7.0,SE,3.5,-,N/A,,Overcast,130,2012-12-17 21:15:00
3:35 PM,24.3,24.3,100,29.65,7.0,SE,3.5,-,N/A,,Overcast,140,2012-12-17 21:35:00
3:55 PM,24.4,24.4,100,29.64,5.0,ESE,4.6,-,N/A,,Overcast,120,2012-12-17 21:55:00
6:35 PM,23.9,23.9,100,29.65,7.0,SE,6.9,-,N/A,,Overcast,130,2012-12-18 00:35:00
6:55 PM,24.3,24.3,100,29.64,5.0,SE,5.8,-,N/A,,Overcast,130,2012-12-18 00:55:00
7:15 PM,24.4,24.4,100,29.64,5.0,ESE,5.8,-,N/A,,Overcast,120,2012-12-18 01:15:00
7:35 PM,24.6,24.6,100,29.64,5.0,SE,6.9,-,N/A,,Overcast,130,2012-12-18 01:35:00
7:55 PM,24.6,24.6,100,29.64,5.0,SE,5.8,-,N/A,,Overcast,140,2012-12-18 01:55:00
8:16 PM,24.8,24.8,100,29.64,4.0,SE,6.9,-,N/A,,Overcast,130,2012-12-18 02:16:00
8:35 PM,24.8,24.8,100,29.64,2.5,SE,6.9,-,N/A,,Overcast,140,2012-12-18 02:35:00
8:55 PM,24.8,24.8,100,29.64,2.5,SE,5.8,-,N/A,,Overcast,140,2012-12-18 02:55:00
9:15 PM,25.0,25.0,100,29.64,1.2,SE,6.9,-,N/A,,Overcast,140,2012-12-18 03:15:00
9:34 PM,25.2,25.3,100,29.64,1.0,SE,6.9,-,N/A,,Overcast,140,2012-12-18 03:34:00
9:55 PM,25.3,25.5,100,29.63,1.8,SE,5.8,-,N/A,,Overcast,140,2012-12-18 03:55:00
10:15 PM,-9999,-9999,N/A,29.63,2.5,SE,8.1,-,N/A,,Overcast,130,2012-12-18 04:15:00
10:35 PM,25.7,25.7,100,29.62,2.5,SE,8.1,-,N/A,,Overcast,130,2012-12-18 04:35:00
10:55 PM,25.7,25.9,100,29.62,2.5,SSE,8.1,-,N/A,,Overcast,150,2012-12-18 04:55:00
11:15 PM,25.9,26.1,100,29.61,2.5,SE,8.1,-,N/A,,Overcast,140,2012-12-18 05:15:00
11:35 PM,26.2,26.2,100,29.61,2.5,SE,9.2,-,N/A,,Overcast,130,2012-12-18 05:35:00
11:55 PM,26.4,26.4,100,29.61,3.0,SE,10.4,-,N/A,,Overcast,140,2012-12-18 05:55:00